Nantes/Atlantique

Airport
ICAO code: 
LFRS
Summary
ICAO Region: 
EUR
Territory: 
Location: 
Nantes, Pays de la Loire,
Coordinates: 
Aerial View: 
47° 9' 11.514" N, 1° 36' 38.628" W
Metar
Observation
LFRS 051630Z AUTO 33005KT 290V360 9999 BKN044 BKN056 BKN068 08/04 Q1013 TEMPO 32016G30KT
Station
Nantes
Date/Time
2021-12-05 16:30:00
Wind direction
330°
Wind speed
05 kts
Lowest cloud amount
broken clouds
Temperature
8°C
Dew point
4°C
Humidity
75%
QNH
1013 hPa
Weather condition
n/a

Description

International airport serving western France and the city of Nantes.

Climatology

Temperate Marine climate/Oceanic climate (Köppen climate classification Cfb). Moderately cool summer and comparatively warm winter with a temperature range of only 14°C. Prevailing south-westerly winds from the Atlantic Ocean.

Runways

Designator Length Width Surface Rops
3/21 2900 45 ASP Yes/Yes
Airport map: 
Aerial View: 

Accidents and Serious Incidents at or in the vicinity of LFRS

SKYbrary Partners:

Safety knowledge contributed by: